Regional Weather Roundup
Issued by NWS Spokane, WA

Home | Current Version | Previous Version | Text Only | Print | Product List | Glossary On
Versions: 1 2 3 4 5 6 7 8 9 10 11 12 13 14 15 16 17 18 19 20 21 22 23 24 25 26 27 28 29 30 31 32 33 34 35 36 37 38 39 40 41 42 43 44 45 46 47 48 49 50
000
NZUS01 KOTX 201400
RWROTX
EASTERN WASHINGTON/NORTHERN IDAHO ROUNDUP
NATIONAL WEATHER SERVICE, SPOKANE WA
700 AM PDT MON OCT 20 2014

Note: "fair" indicated few or no clouds below 12,000 feet with no
significant weather and/or obstructions to visibility.

...NORTHEAST WASHINGTON AND NORTHERN IDAHO PANHANDLE...

CITY           SKY/WX    TMP DP  RH WIND       PRES   REMARKS
SPOKANE INTL   PTCLDY    47  45  93 E5        29.75R
SPOKANE DOWNTO CLEAR     45  43  93 NE3       29.75S
COEUR D ALENE  CLEAR     43  41  93 E9        29.77S
DEER PARK      CLEAR     41  40  96 CALM      29.76R

...SOUTHEAST WASHINGTON AND SOUTHERN IDAHO PANHANDLE...

CITY           SKY/WX    TMP DP  RH WIND       PRES   REMARKS
WALLA WALLA    CLEAR     49  46  90 E5        29.74R
PULLMAN/MOSCOW CLEAR     52  38  58 NE8       29.78S
LOWELL           N/A     42  41  96 NW6       29.90S

...COLUMBIA BASIN...

CITY           SKY/WX    TMP DP  RH WIND       PRES   REMARKS
EPHRATA        MOCLDY    44  42  93 S3        29.70S
MOSES LAKE     PTCLDY    42  40  92 N3        29.72R
TRI CITIES     CLEAR     43  43 100 E3        29.73R
HERMISTON      CLEAR     40  38  93 SE3       29.73S
PENDLETON      CLEAR     43  41  93 SE5       29.74R

...EAST SLOPES CASCADES...

CITY           SKY/WX    TMP DP  RH WIND       PRES   REMARKS
THE DALLES     CLOUDY    54  51  90 CALM      29.73S
YAKIMA         CLOUDY    47  45  93 CALM      29.73S
ELLENSBURG     CLOUDY    48  44  86 E5        29.72S FOG
WENATCHEE      CLOUDY    51  47  86 NW3       29.72R
OMAK           CLOUDY    43  41  93 SW3       29.71F

...SOUTHERN BRITISH COLUMBIA...

CITY           SKY/WX    TMP DP  RH WIND       PRES   REMARKS

...WESTERN MONTANA...

CITY           SKY/WX    TMP DP  RH WIND       PRES   REMARKS
MISSOULA       CLEAR     30  29  96 CALM      29.93S

...NEIGHBORING CITIES...

CITY           SKY/WX    TMP DP  RH WIND       PRES   REMARKS
SEATTLE        CLOUDY    58  56  93 SW7       29.71S FOG



USA.gov is the U.S. government's official web portal to all federal, state and local government web resources and services.